Total_Precipitation_Accumulation
0.00 0.00 0.00 0.00 0.01 0.01 0.01 0.04 0.11 0.14 0.12 0.18 0.29 0.49 0.63 0.62 0.77 1.16 1.38 1.34 1.33 1.59 2.06 2.42 2.64 2.79 3.07 3.20 3.32 3.24 3.32 3.67 3.95 3.77 3.40 3.17 2.85 2.60 2.38 2.19 2.08 2.08 2.09 2.26
0.00 0.01 0.00 0.01 0.01 0.01 0.02 0.06 0.13 0.15 0.13 0.21 0.36 0.58 0.74 0.82 1.07 1.23 1.15 1.15 1.32 1.61 2.06 2.41 2.63 2.75 2.97 3.22 3.63 3.67 3.72 4.01 4.17 3.94 3.69 3.46 3.24 2.87 2.73 2.57 2.39 2.11 2.00 2.11
0.01 0.01 0.01 0.01 0.01 0.02 0.04 0.06 0.12 0.12 0.19 0.31 0.39 0.78 0.94 1.06 1.20 1.18 1.14 1.29 1.36 1.44 1.81 2.03 2.07 2.26 2.43 2.53 2.78 3.01 3.36 3.74 3.81 3.83 3.70 3.57 3.45 2.98 2.79 2.62 2.41 2.17 2.01 1.97
0.01 0.01 0.01 0.02 0.02 0.02 0.06 0.05 0.05 0.08 0.16 0.41 0.49 0.99 1.20 1.39 1.45 1.26 1.21 1.20 1.21 1.42 1.73 1.72 1.59 1.75 1.93 1.87 2.12 2.46 2.81 3.07 3.21 3.32 3.32 3.32 3.18 2.94 2.86 2.68 2.31 2.05 1.89 1.87
0.02 0.02 0.02 0.04 0.03 0.03 0.04 0.04 0.06 0.09 0.16 0.37 0.44 0.77 1.23 1.56 1.65 1.29 1.18 1.12 1.18 1.37 1.41 1.41 1.45 1.55 1.65 1.74 1.99 2.26 2.46 2.68 2.81 2.87 2.88 2.88 2.76 2.63 2.55 2.39 2.11 1.91 1.76 1.68
0.02 0.04 0.04 0.03 0.03 0.04 0.04 0.07 0.12 0.17 0.34 0.68 0.58 0.68 1.17 1.47 1.29 1.12 1.07 0.92 1.00 1.21 1.30 1.37 1.44 1.48 1.57 1.82 2.11 2.34 2.49 2.63 2.66 2.46 2.32 2.32 2.32 2.28 2.18 2.02 1.83 1.64 1.52 1.44
0.13 0.10 0.07 0.05 0.06 0.06 0.08 0.16 0.54 0.89 1.21 1.10 0.70 0.79 1.36 1.22 0.87 0.78 0.86 0.84 0.85 0.93 1.09 1.20 1.36 1.52 1.63 1.70 1.72 1.98 2.28 2.45 2.39 2.19 2.02 1.95 1.98 1.97 1.90 1.76 1.65 1.56 1.39 1.29
0.28 0.25 0.13 0.09 0.12 0.13 0.13 0.24 0.68 0.92 0.96 0.94 0.74 1.13 1.51 1.12 0.77 0.62 0.69 0.70 0.62 0.59 0.56 0.65 0.78 0.85 0.93 0.94 0.93 1.04 1.21 1.37 1.42 1.36 1.37 1.39 1.43 1.46 1.47 1.54 1.45 1.41 1.34 1.21
0.16 0.15 0.10 0.12 0.17 0.18 0.24 0.28 0.28 0.48 0.65 0.95 0.93 1.12 1.10 0.84 0.67 0.61 0.67 0.65 0.53 0.48 0.43 0.47 0.53 0.52 0.60 0.61 0.65 0.77 0.88 0.97 0.99 0.96 0.94 0.95 1.01 1.11 1.16 1.18 1.16 1.17 1.16 1.10
0.10 0.10 0.10 0.10 0.15 0.18 0.20 0.28 0.42 0.65 0.86 0.92 0.96 1.25 1.36 1.15 0.94 0.75 0.72 0.67 0.51 0.41 0.36 0.37 0.44 0.45 0.55 0.66 0.77 0.89 0.91 0.88 0.82 0.80 0.77 0.71 0.79 0.85 0.90 0.89 0.87 0.86 0.86 0.89
0.08 0.08 0.12 0.18 0.21 0.21 0.22 0.30 0.45 0.61 0.67 0.81 1.06 1.14 0.84 0.78 0.83 0.90 0.92 0.78 0.53 0.40 0.34 0.35 0.41 0.44 0.50 0.60 0.70 0.78 0.82 0.85 0.79 0.73 0.74 0.73 0.70 0.68 0.70 0.74 0.72 0.74 0.74 0.74
0.08 0.10 0.16 0.24 0.21 0.15 0.21 0.31 0.47 0.69 0.74 0.76 0.84 0.89 0.49 0.47 0.56 0.65 0.66 0.55 0.38 0.31 0.29 0.29 0.31 0.32 0.39 0.48 0.56 0.59 0.63 0.74 0.73 0.67 0.68 0.71 0.67 0.61 0.61 0.60 0.58 0.61 0.63 0.64
0.14 0.15 0.25 0.51 0.47 0.25 0.24 0.24 0.34 0.48 0.57 0.63 0.78 0.87 0.51 0.46 0.55 0.55 0.52 0.45 0.34 0.30 0.29 0.30 0.30 0.30 0.33 0.43 0.51 0.55 0.59 0.67 0.70 0.68 0.70 0.67 0.66 0.63 0.58 0.51 0.48 0.47 0.50 0.55
0.11 0.13 0.22 0.56 0.61 0.40 0.30 0.26 0.29 0.38 0.51 0.47 0.45 0.60 0.56 0.52 0.62 0.55 0.46 0.39 0.30 0.25 0.26 0.26 0.28 0.30 0.32 0.35 0.39 0.45 0.56 0.67 0.65 0.62 0.64 0.60 0.56 0.55 0.54 0.52 0.47 0.44 0.44 0.48
0.11 0.13 0.15 0.24 0.31 0.35 0.35 0.28 0.24 0.26 0.30 0.40 0.39 0.53 0.61 0.58 0.58 0.48 0.38 0.33 0.27 0.24 0.22 0.22 0.22 0.21 0.24 0.28 0.32 0.38 0.41 0.49 0.57 0.60 0.59 0.58 0.55 0.52 0.49 0.45 0.41 0.38 0.37 0.35
0.16 0.18 0.17 0.25 0.32 0.34 0.37 0.34 0.26 0.23 0.23 0.28 0.33 0.44 0.43 0.44 0.42 0.38 0.33 0.30 0.29 0.22 0.18 0.17 0.15 0.15 0.17 0.19 0.23 0.29 0.32 0.36 0.43 0.47 0.47 0.52 0.53 0.51 0.51 0.43 0.38 0.35 0.35 0.37
0.24 0.28 0.26 0.30 0.39 0.45 0.48 0.31 0.27 0.28 0.25 0.35 0.53 0.52 0.42 0.46 0.36 0.28 0.27 0.22 0.19 0.15 0.12 0.12 0.10 0.10 0.12 0.13 0.16 0.23 0.28 0.31 0.35 0.38 0.42 0.44 0.48 0.51 0.50 0.42 0.36 0.34 0.35 0.38
0.25 0.39 0.43 0.40 0.54 0.67 0.53 0.28 0.23 0.25 0.22 0.23 0.32 0.34 0.31 0.37 0.32 0.23 0.19 0.17 0.14 0.13 0.11 0.10 0.10 0.09 0.09 0.11 0.15 0.23 0.30 0.32 0.35 0.42 0.44 0.45 0.46 0.50 0.50 0.45 0.40 0.41 0.42 0.43
0.21 0.36 0.43 0.48 0.60 0.62 0.45 0.35 0.30 0.33 0.35 0.21 0.24 0.27 0.24 0.22 0.22 0.21 0.14 0.13 0.11 0.11 0.10 0.08 0.07 0.09 0.14 0.15 0.18 0.24 0.29 0.34 0.40 0.46 0.48 0.49 0.49 0.51 0.51 0.51 0.51 0.54 0.56 0.50
0.29 0.40 0.51 0.49 0.60 0.75 0.55 0.40 0.33 0.36 0.59 0.37 0.26 0.23 0.22 0.22 0.34 0.31 0.15 0.10 0.09 0.08 0.09 0.09 0.08 0.11 0.16 0.21 0.28 0.34 0.36 0.42 0.46 0.47 0.48 0.48 0.54 0.60 0.61 0.64 0.70 0.71 0.73 0.66
0.60 0.63 0.64 0.59 0.60 0.59 0.53 0.40 0.34 0.61 0.73 0.38 0.31 0.28 0.26 0.26 0.32 0.27 0.15 0.11 0.09 0.08 0.09 0.09 0.12 0.21 0.26 0.25 0.34 0.41 0.44 0.48 0.51 0.58 0.60 0.60 0.63 0.70 0.74 0.84 0.92 0.95 0.90 0.88
0.76 0.80 0.78 0.75 0.83 0.82 0.60 0.55 0.62 0.67 0.49 0.39 0.31 0.28 0.24 0.24 0.21 0.19 0.15 0.13 0.12 0.10 0.12 0.13 0.17 0.28 0.36 0.38 0.47 0.53 0.56 0.59 0.66 0.74 0.74 0.74 0.81 0.73 0.70 0.89 0.97 1.05 1.08 1.02
0.64 0.72 0.79 0.83 0.82 0.69 0.62 0.66 0.64 0.58 0.55 0.49 0.38 0.32 0.27 0.27 0.22 0.18 0.16 0.15 0.14 0.15 0.15 0.18 0.24 0.34 0.41 0.48 0.61 0.75 0.79 0.81 0.83 0.89 0.94 0.96 0.96 0.98 0.99 1.07 1.10 1.10 1.12 1.08
0.61 0.56 0.73 0.85 0.85 0.76 0.74 0.66 0.59 0.55 0.57 0.52 0.39 0.37 0.34 0.30 0.25 0.23 0.23 0.20 0.18 0.18 0.18 0.20 0.26 0.33 0.44 0.56 0.73 0.86 0.89 0.87 0.89 0.94 0.98 1.07 1.14 1.12 1.15 1.27 1.26 1.21 1.20 1.20
0.61 0.60 0.78 0.94 0.98 0.95 0.93 0.77 0.65 0.58 0.48 0.42 0.37 0.37 0.34 0.31 0.29 0.25 0.24 0.24 0.22 0.20 0.20 0.22 0.29 0.39 0.46 0.52 0.64 0.75 0.86 0.93 1.04 1.12 1.15 1.22 1.29 1.36 1.38 1.32 1.29 1.25 1.27 1.21
0.63 0.62 0.70 0.83 0.81 0.81 0.78 0.70 0.55 0.52 0.50 0.43 0.41 0.41 0.34 0.33 0.36 0.31 0.25 0.23 0.22 0.22 0.23 0.27 0.32 0.40 0.47 0.51 0.61 0.72 0.86 1.01 1.19 1.25 1.26 1.28 1.30 1.37 1.39 1.37 1.25 1.12 1.05 0.96